When you browse on this site, cookies collect data to enhance your experience and personalize the content and advertising you see.
Visit our Privacy Policy to learn more. By continuing to use the site, you agree to this use of cookies and data.
  • en France
  • Liste des pays
  • À 7 jours
  • Température de l'eau
  • Carte météo
  • Widgets météo
  • user-avatar
    Se connecter

    Météo par heure à Boma

    Ce jour, 7 Décembre, Samedi

    Heure Température Précipitation Vent Pression Humidité
    00:00 +22°C° 0 mm 1 m/s 699 mmHg 39%
    01:00 +22°C° 0 mm 1 m/s 699 mmHg 42%
    02:00 +21°C° 0 mm 1 m/s 699 mmHg 42%
    03:00 +21°C° 0 mm 1 m/s 699 mmHg 42%
    04:00 +20°C° 0 mm 1 m/s 699 mmHg 42%
    05:00 +18°C° 0 mm 0 m/s 700 mmHg 42%
    06:00 +18°C° 0 mm 0 m/s 700 mmHg 43%
    07:00 +19°C° 0 mm 0 m/s 700 mmHg 41%
    08:00 +23°C° 0 mm 0 m/s 700 mmHg 33%
    09:00 +29°C° 0 mm 1 m/s 701 mmHg 26%
    10:00 +32°C° 0 mm 1 m/s 701 mmHg 18%
    11:00 +34°C° 0 mm 1 m/s 701 mmHg 17%
    12:00 +35°C° 0 mm 1 m/s 700 mmHg 15%
    13:00 +37°C° 0 mm 1 m/s 699 mmHg 13%
    14:00 +36°C° 0 mm 1 m/s 699 mmHg 13%
    15:00 +36°C° 0 mm 1 m/s 698 mmHg 14%
    16:00 +36°C° 0 mm 1 m/s 698 mmHg 14%
    17:00 +32°C° 0 mm 1 m/s 698 mmHg 18%
    18:00 +27°C° 0 mm 0 m/s 698 mmHg 22%
    19:00 +24°C° 0 mm 0 m/s 698 mmHg 27%
    20:00 +23°C° 0 mm 0 m/s 698 mmHg 28%
    21:00 +22°C° 0 mm 0 m/s 699 mmHg 30%
    22:00 +21°C° 0 mm 0 m/s 699 mmHg 32%
    23:00 +20°C° 0 mm 0 m/s 699 mmHg 32%

    Demain, 8 Décembre, Dimanche

    Heure Température Précipitation Vent Pression Humidité
    00:00 +20°C° 0 mm 0 m/s 699 mmHg 33%
    01:00 +21°C° 0 mm 1 m/s 699 mmHg 33%
    02:00 +18°C° 0 mm 0 m/s 699 mmHg 35%
    03:00 +17°C° 0 mm 0 m/s 699 mmHg 37%
    04:00 +17°C° 0 mm 0 m/s 699 mmHg 39%
    05:00 +17°C° 0 mm 0 m/s 699 mmHg 40%
    06:00 +17°C° 0 mm 0 m/s 700 mmHg 41%
    07:00 +18°C° 0 mm 0 m/s 700 mmHg 42%
    08:00 +22°C° 0 mm 0 m/s 701 mmHg 34%
    09:00 +29°C° 0 mm 1 m/s 701 mmHg 26%
    10:00 +33°C° 0 mm 1 m/s 701 mmHg 17%
    11:00 +34°C° 0 mm 1 m/s 701 mmHg 16%
    12:00 +36°C° 0 mm 1 m/s 700 mmHg 14%
    13:00 +38°C° 0 mm 2 m/s 700 mmHg 13%
    14:00 +38°C° 0 mm 2 m/s 699 mmHg 13%
    15:00 +36°C° 0 mm 1 m/s 698 mmHg 14%
    16:00 +36°C° 0 mm 1 m/s 698 mmHg 14%
    17:00 +33°C° 0 mm 1 m/s 698 mmHg 19%
    18:00 +29°C° 0 mm 1 m/s 698 mmHg 23%
    19:00 +24°C° 0 mm 0 m/s 698 mmHg 28%
    20:00 +23°C° 0 mm 0 m/s 698 mmHg 28%
    21:00 +25°C° 0 mm 1 m/s 699 mmHg 29%
    22:00 +24°C° 0 mm 1 m/s 699 mmHg 30%
    23:00 +23°C° 0 mm 1 m/s 699 mmHg 32%

    Après-demain, 9 Décembre, Lundi

    Heure Température Précipitation Vent Pression Humidité
    00:00 +19°C° 0 mm 0 m/s 699 mmHg 34%
    01:00 +18°C° 0 mm 0 m/s 699 mmHg 35%
    02:00 +18°C° 0 mm 0 m/s 699 mmHg 37%
    03:00 +17°C° 0 mm 0 m/s 698 mmHg 38%
    04:00 +16°C° 0 mm 0 m/s 698 mmHg 39%
    05:00 +17°C° 0 mm 0 m/s 699 mmHg 39%
    06:00 +17°C° 0 mm 0 m/s 699 mmHg 39%
    07:00 +18°C° 0 mm 0 m/s 700 mmHg 39%
    08:00 +23°C° 0 mm 0 m/s 700 mmHg 32%
    09:00 +28°C° 0 mm 0 m/s 701 mmHg 24%
    10:00 +33°C° 0 mm 0 m/s 702 mmHg 16%
    11:00 +34°C° 0 mm 0 m/s 701 mmHg 15%
    12:00 +37°C° 0 mm 1 m/s 700 mmHg 13%
    13:00 +39°C° 0 mm 1 m/s 700 mmHg 12%
    14:00 +39°C° 0 mm 1 m/s 699 mmHg 12%
    15:00 +37°C° 0 mm 1 m/s 698 mmHg 12%
    16:00 +37°C° 0 mm 1 m/s 698 mmHg 12%
    17:00 +33°C° 0 mm 1 m/s 698 mmHg 17%
    18:00 +30°C° 0 mm 1 m/s 698 mmHg 21%
    19:00 +24°C° 0 mm 0 m/s 697 mmHg 25%
    20:00 +23°C° 0 mm 0 m/s 698 mmHg 26%
    21:00 +24°C° 0 mm 1 m/s 698 mmHg 27%
    22:00 +23°C° 0 mm 1 m/s 699 mmHg 28%
    23:00 +20°C° 0 mm 0 m/s 699 mmHg 30%

    10 Décembre, Mardi

    Heure Température Précipitation Vent Pression Humidité
    00:00 +19°C° 0 mm 0 m/s 699 mmHg 31%
    01:00 +18°C° 0 mm 0 m/s 699 mmHg 33%
    02:00 +18°C° 0 mm 0 m/s 699 mmHg 35%
    03:00 +17°C° 0 mm 0 m/s 698 mmHg 37%
    04:00 +16°C° 0 mm 0 m/s 698 mmHg 39%
    05:00 +17°C° 0 mm 0 m/s 699 mmHg 44%
    06:00 +17°C° 0 mm 0 m/s 699 mmHg 48%
    07:00 +17°C° 0 mm 0 m/s 700 mmHg 53%
    08:00 +22°C° 0 mm 0 m/s 700 mmHg 42%
    09:00 +27°C° 0 mm 0 m/s 701 mmHg 32%
    10:00 +32°C° 0 mm 0 m/s 702 mmHg 22%
    11:00 +33°C° 0 mm 0 m/s 701 mmHg 19%
    12:00 +35°C° 0 mm 0 m/s 700 mmHg 15%
    13:00 +39°C° 0 mm 1 m/s 700 mmHg 12%
    14:00 +37°C° 0 mm 1 m/s 699 mmHg 13%
    15:00 +37°C° 0 mm 1 m/s 698 mmHg 13%
    16:00 +36°C° 0 mm 1 m/s 697 mmHg 13%
    17:00 +33°C° 0 mm 1 m/s 697 mmHg 17%
    18:00 +29°C° 0 mm 1 m/s 697 mmHg 21%
    19:00 +26°C° 0 mm 1 m/s 697 mmHg 25%
    20:00 +25°C° 0 mm 1 m/s 698 mmHg 27%
    21:00 +24°C° 0 mm 1 m/s 698 mmHg 29%
    22:00 +23°C° 0 mm 1 m/s 699 mmHg 31%
    23:00 +22°C° 0 mm 1 m/s 699 mmHg 33%

    11 Décembre, Mercredi

    Heure Température Précipitation Vent Pression Humidité
    00:00 +21°C° 0 mm 1 m/s 699 mmHg 35%
    01:00 +19°C° 0 mm 0 m/s 699 mmHg 36%
    02:00 +18°C° 0 mm 0 m/s 699 mmHg 43%
    03:00 +17°C° 0 mm 0 m/s 698 mmHg 49%
    04:00 +16°C° 0 mm 0 m/s 698 mmHg 55%
    05:00 +17°C° 0 mm 0 m/s 699 mmHg 61%
    06:00 +17°C° 0 mm 0 m/s 699 mmHg 66%
    07:00 +17°C° 0 mm 0 m/s 699 mmHg 72%
    08:00 +22°C° 0 mm 0 m/s 700 mmHg 57%
    09:00 +27°C° 0 mm 0 m/s 701 mmHg 43%
    10:00 +31°C° 0 mm 0 m/s 702 mmHg 28%
    11:00 +32°C° 0 mm 0 m/s 701 mmHg 23%
    12:00 +36°C° 0 mm 1 m/s 700 mmHg 18%
    13:00 +37°C° 0 mm 1 m/s 700 mmHg 13%
    14:00 +36°C° 0 mm 1 m/s 699 mmHg 14%
    15:00 +36°C° 0 mm 1 m/s 698 mmHg 14%
    16:00 +35°C° 0 mm 1 m/s 697 mmHg 14%
    17:00 +32°C° 0 mm 1 m/s 697 mmHg 18%
    18:00 +29°C° 0 mm 1 m/s 698 mmHg 22%
    19:00 +26°C° 0 mm 1 m/s 698 mmHg 26%
    20:00 +25°C° 0 mm 1 m/s 698 mmHg 27%
    21:00 +24°C° 0 mm 1 m/s 699 mmHg 28%
    22:00 +21°C° 0 mm 0 m/s 699 mmHg 30%
    23:00 +21°C° 0 mm 0 m/s 699 mmHg 31%

    12 Décembre, Jeudi

    Heure Température Précipitation Vent Pression Humidité
    00:00 +20°C° 0 mm 0 m/s 699 mmHg 33%
    01:00 +19°C° 0 mm 0 m/s 699 mmHg 34%
    02:00 +18°C° 0 mm 0 m/s 699 mmHg 37%
    03:00 +18°C° 0 mm 0 m/s 698 mmHg 41%
    04:00 +17°C° 0 mm 0 m/s 698 mmHg 44%
    05:00 +18°C° 0 mm 0 m/s 698 mmHg 48%
    06:00 +18°C° 0 mm 0 m/s 699 mmHg 52%
    07:00 +18°C° 0 mm 0 m/s 699 mmHg 56%
    08:00 +23°C° 0 mm 0 m/s 700 mmHg 47%
    09:00 +27°C° 0 mm 0 m/s 701 mmHg 39%
    10:00 +32°C° 0 mm 0 m/s 702 mmHg 31%
    11:00 +33°C° 0 mm 0 m/s 701 mmHg 27%
    12:00 +35°C° 0 mm 0 m/s 700 mmHg 23%
    13:00 +39°C° 0 mm 1 m/s 700 mmHg 20%
    14:00 +37°C° 0 mm 1 m/s 699 mmHg 21%
    15:00 +36°C° 0 mm 1 m/s 698 mmHg 23%
    16:00 +35°C° 0 mm 1 m/s 697 mmHg 24%
    17:00 +32°C° 0 mm 1 m/s 697 mmHg 29%
    18:00 +30°C° 0 mm 1 m/s 698 mmHg 34%
    19:00 +26°C° 0 mm 0 m/s 698 mmHg 38%
    20:00 +26°C° 0 mm 0 m/s 698 mmHg 41%
    21:00 +27°C° 0 mm 1 m/s 699 mmHg 43%
    22:00 +27°C° 0 mm 1 m/s 700 mmHg 45%
    23:00 +27°C° 0 mm 1 m/s 700 mmHg 44%
    Voir plus